Terre Haute, IN

12:01 AM EST on December 14, 2019 (GMT -0500)
Terre Haute International-Hulman

Weather History for KHUF - October, 2019

Change the Weather History Date:

Wednesday, October 30, 2019

  Actual Average Record
Temperature  
Mean Temperature 48 °F 50 °F  
Max Temperature 51 °F 60 °F 81 °F (1971)
Min Temperature 44 °F 39 °F 21 °F (1980)
Degree Days  
Heating Degree Days 17 15  
Month to date heating degree days 291 333  
Since 1 July heating degree days 293 411  
Cooling Degree Days 0 0  
Month to date cooling degree days 34 12  
Year to date cooling degree days 1298 990  
Moisture  
Dew Point 45 °F    
Average Humidity 90    
Maximum Humidity 93    
Minimum Humidity 86    
Precipitation  
Precipitation 0.10 in 0.10 in 0.85 in (1974)
Month to date precipitation 4.60 3.47  
Year to date precipitation 42.53 38.17  
Sea Level Pressure  
Sea Level Pressure 30.05 in    
Wind  
Wind Speed 8 mph (NNE)    
Max Wind Speed 15 mph    
Max Gust Speed 19 mph    
Visibility 8 miles    
Events Rain    
T = Trace of Precipitation, MM = Missing Value Source: NWS Daily Summary

Daily Weather History Graph

Daily Weather History Graph

Search for Another Location

Airport or City:

Astronomy

Oct. 30, 2019 Rise Set
Actual Time 8:14 AM EDT 6:50 PM EDT
Civil Twilight 7:47 AM EDT 7:18 PM EDT
Nautical Twilight 7:15 AM EDT 7:49 PM EDT
Astronomical Twilight 6:44 AM EDT 8:20 PM EDT
Moon 10:57 AM EDT (10/30) 8:58 PM EDT (10/30)
Length of Visible Light 11h 30m
Length of Day
10h 35m
Waxing Crescent, 8% of the Moon is Illuminated
Oct 30
Waxing Crescent
Nov 4
First Quarter
Nov 12
Full
Nov 19
Last Quarter
Nov 26
New

Hourly Weather History & Observations

Time (EDT) Temp. Windchill Dew Point Humidity Pressure Visibility Wind Dir Wind Speed Gust Speed Precip Events Conditions
12:53 AM 45.0 °F 41.2 °F 42.1 °F 90% 30.24 in 6.0 mi North 6.9 mph - N/A   Overcast
1:53 AM 44.1 °F 40.8 °F 42.1 °F 93% 30.23 in 5.0 mi North 5.8 mph - N/A   Overcast
2:53 AM 45.0 °F 40.6 °F 42.1 °F 90% 30.21 in 7.0 mi NNE 8.1 mph - N/A   Overcast
3:53 AM 45.0 °F 40.1 °F 42.1 °F 90% 30.19 in 9.0 mi NE 9.2 mph - 0.00 in Rain Light Rain
4:09 AM 45.0 °F 40.6 °F 42.1 °F 90% 30.19 in 9.0 mi NE 8.1 mph - 0.00 in   Overcast
4:34 AM 45.0 °F 40.1 °F 43.0 °F 93% 30.18 in 5.0 mi NE 9.2 mph - 0.00 in   Overcast
4:53 AM 45.0 °F 40.6 °F 43.0 °F 93% 30.18 in 8.0 mi NE 8.1 mph - 0.00 in Rain Light Rain
5:53 AM 45.0 °F 39.7 °F 43.0 °F 93% 30.15 in 7.0 mi NE 10.4 mph - 0.04 in Rain Light Rain
6:53 AM 46.0 °F 41.0 °F 43.0 °F 89% 30.16 in 10.0 mi NE 10.4 mph - 0.00 in   Overcast
7:53 AM 46.0 °F 41.4 °F 44.1 °F 93% 30.14 in 10.0 mi NE 9.2 mph - N/A   Overcast
8:53 AM 46.0 °F 41.0 °F 44.1 °F 93% 30.12 in 9.0 mi NE 10.4 mph - N/A   Overcast
9:53 AM 46.0 °F 41.0 °F 44.1 °F 93% 30.12 in 6.0 mi NNE 10.4 mph - 0.01 in Rain Light Rain
10:53 AM 46.9 °F - 44.1 °F 90% 30.10 in 7.0 mi NE 10.4 mph - 0.03 in Rain Light Rain
11:53 AM 46.9 °F - 45.0 °F 93% 30.07 in 10.0 mi NNE 10.4 mph - 0.02 in   Overcast
12:12 PM 48.0 °F - 45.0 °F 89% 30.07 in 10.0 mi NNE 6.9 mph - N/A   Overcast
12:53 PM 48.0 °F - 46.0 °F 93% 30.06 in 10.0 mi NNE 8.1 mph - N/A   Overcast
1:53 PM 48.9 °F - 46.0 °F 90% 30.03 in 10.0 mi NE 9.2 mph - N/A   Overcast
2:53 PM 48.9 °F - 46.9 °F 93% 29.96 in 10.0 mi NE 9.2 mph - N/A   Overcast
3:53 PM 50.0 °F - 46.9 °F 89% 29.95 in 10.0 mi ENE 5.8 mph - N/A   Overcast
4:53 PM 50.0 °F - 46.9 °F 89% 29.94 in 10.0 mi North 4.6 mph - N/A   Overcast
5:53 PM 50.0 °F - 46.9 °F 89% 29.94 in 10.0 mi North 5.8 mph - N/A   Overcast
6:53 PM 48.9 °F - 46.9 °F 93% 29.93 in 10.0 mi North 4.6 mph - 0.00 in   Overcast
7:53 PM 48.9 °F - 46.9 °F 93% 29.95 in 3.0 mi NNW 4.6 mph - N/A   Overcast
8:05 PM 48.0 °F - 46.9 °F 96% 29.93 in 3.0 mi North 4.6 mph - N/A   Overcast
8:30 PM 48.0 °F - 46.0 °F 93% 29.92 in 2.5 mi North 8.1 mph - N/A   Overcast
8:40 PM 48.0 °F - 46.0 °F 93% 29.93 in 3.0 mi North 6.9 mph - N/A   Overcast
8:53 PM 48.0 °F - 46.0 °F 93% 29.91 in 3.0 mi North 5.8 mph - N/A   Overcast
9:53 PM 46.9 °F - 45.0 °F 93% 29.92 in 5.0 mi North 5.8 mph - N/A   Overcast
10:45 PM 46.9 °F - 45.0 °F 93% 29.91 in 10.0 mi North 6.9 mph - N/A   Overcast
10:53 PM 46.9 °F - 45.0 °F 93% 29.91 in 10.0 mi North 5.8 mph - N/A   Overcast
11:53 PM 46.9 °F - 45.0 °F 93% 29.89 in 10.0 mi North 6.9 mph - N/A   Overcast